GFSNGP_850_rhum_168.txt.gz
RH
52 49 48 49 47 49 76 64 66 75 78 53 54 65 47 42 42 40 31 27 28 26 26 26 27 30 29 42 44 42 41 39 28 14 10 10 11 12 14 17 19 25 35 48
60 52 55 61 52 52 47 52 56 52 56 37 36 39 39 38 38 39 36 27 26 24 23 24 24 23 32 34 40 45 44 44 37 23 14 13 14 13 14 17 19 20 22 22
71 50 49 49 41 44 50 46 46 57 42 33 34 29 31 36 38 39 39 35 32 29 26 29 30 30 33 35 37 45 46 46 46 36 22 14 13 14 14 15 16 18 20 21
73 52 63 39 35 38 46 43 44 41 37 34 33 34 38 38 37 35 38 38 37 36 32 29 32 34 34 36 39 46 48 50 51 47 35 21 14 13 12 13 15 16 18 20
74 71 45 39 44 44 46 35 33 40 40 41 37 41 37 36 36 41 43 43 40 35 36 35 35 36 38 33 29 38 50 56 57 56 48 35 22 15 14 13 13 16 18 20
71 81 71 36 50 44 43 46 38 54 42 41 44 52 43 43 46 49 49 47 43 41 37 36 31 37 42 40 34 28 36 58 66 63 58 50 37 23 16 14 14 14 16 20
76 82 57 38 41 48 74 61 50 49 46 48 49 49 49 51 52 53 53 53 47 46 37 33 31 30 38 44 40 34 37 56 65 68 67 62 54 41 26 18 17 17 18 20
77 85 83 39 46 69 54 47 46 51 51 53 53 54 54 54 54 52 47 51 47 46 36 32 32 32 34 37 38 37 37 43 57 68 73 71 66 56 41 28 21 19 19 20
57 55 40 46 42 48 49 50 55 55 56 57 57 56 56 56 51 52 55 54 45 43 35 33 39 39 31 27 35 39 34 38 50 63 73 75 74 70 61 47 34 24 20 20
59 44 46 46 45 46 48 57 59 60 60 59 58 56 58 55 50 48 46 44 43 43 41 36 38 45 46 48 56 50 43 32 39 46 59 68 77 77 74 68 54 40 26 20
50 44 45 46 51 56 61 62 63 58 49 55 57 57 54 50 49 48 42 40 45 45 40 37 38 39 37 40 49 50 50 43 39 37 39 45 52 61 63 72 73 54 39 28
60 45 46 50 56 62 64 64 56 55 59 56 51 41 33 30 30 27 28 37 37 30 36 45 42 37 38 37 44 42 42 42 42 45 49 54 70 82 84 85 82 75 56 41
53 52 54 61 65 61 59 54 55 60 54 40 32 25 19 16 22 30 23 19 22 28 23 22 28 45 37 40 41 46 43 38 36 36 40 49 59 69 78 81 78 75 74 61
56 64 68 63 60 59 56 50 52 46 49 36 26 21 16 11 8 7 8 11 12 12 14 19 20 28 53 38 37 44 47 44 42 42 46 52 57 64 80 88 88 86 82 71
66 66 63 61 58 55 53 59 71 58 42 33 25 23 17 18 17 17 16 22 26 23 24 30 28 20 44 55 39 37 48 48 43 44 48 53 59 65 72 84 92 92 88 86
57 56 57 55 57 55 55 44 37 36 32 30 26 19 20 24 22 18 20 32 54 51 53 53 50 42 61 68 53 42 42 47 47 48 52 52 55 61 68 75 86 88 92 94
57 59 58 55 49 48 45 37 32 26 25 28 26 22 22 24 21 17 18 32 47 52 53 51 54 59 57 72 73 61 50 49 48 48 46 45 53 56 59 69 75 82 81 95
62 66 59 55 51 48 44 39 35 31 39 40 35 33 36 46 40 30 34 44 55 49 44 46 52 62 72 65 65 67 68 61 56 54 54 51 53 64 66 64 66 71 78 87
60 53 49 46 38 37 48 38 28 34 43 40 42 42 51 44 28 26 31 33 38 47 42 60 57 61 68 76 78 72 65 68 64 58 55 53 53 66 67 67 69 78 88 91
46 35 28 26 33 43 51 34 33 34 40 38 46 51 49 40 27 24 30 32 24 33 49 64 80 87 87 86 89 87 79 79 75 66 60 57 57 56 65 63 79 95 97 96
34 40 39 35 33 33 32 30 34 27 27 37 42 46 52 35 30 31 34 33 19 29 59 84 88 89 90 93 94 94 95 91 93 89 77 69 68 65 62 71 77 98 96 96
28 30 33 35 32 29 30 34 33 33 38 40 38 42 50 40 39 44 40 35 26 27 39 65 80 86 88 89 94 96 96 95 95 98 99 100 100 98 84 80 88 99 98 100
26 34 37 34 34 36 39 36 32 35 36 32 37 37 48 50 45 52 50 26 35 36 43 50 75 82 91 100 100 99 98 100 100 100 99 100 97 92 92 96 97 99 98 99
40 43 43 43 49 49 42 39 40 37 31 26 30 32 39 43 40 40 45 37 34 42 44 50 69 87 98 99 99 99 99 99 99 98 99 100 99 98 98 98 99 99 98 96
47 50 51 51 52 51 51 46 49 38 26 24 23 28 34 36 44 38 43 43 40 43 50 58 80 95 98 96 99 99 99 98 98 99 98 98 98 99 99 98 99 98 98 96
54 57 57 57 57 59 56 53 54 44 41 39 29 27 30 31 34 38 40 49 53 51 58 78 84 98 95 98 97 98 98 96 98 99 98 98 98 98 98 99 98 98 96 97
62 60 61 62 57 60 52 50 67 55 45 42 36 31 36 37 40 47 47 57 58 57 60 80 97 97 98 99 98 99 98 97 98 98 98 98 98 98 98 98 98 98 96 97

GFSNGP_850_rhum_174.txt.gz
RH
53 48 48 52 54 57 67 65 76 73 79 64 58 60 42 34 37 39 40 38 36 39 43 44 44 42 37 35 34 34 34 34 32 36 42 43 42 38 26 16 12 11 11 12
65 54 54 60 52 51 48 53 59 54 57 40 39 37 38 41 40 41 40 37 40 45 46 47 47 46 42 42 41 40 38 37 35 34 41 46 46 44 40 29 18 14 12 12
84 57 60 70 50 47 45 44 43 55 42 34 37 38 43 40 42 44 44 47 48 49 49 50 50 49 47 47 46 45 45 44 43 40 35 40 51 51 48 43 32 21 15 13
86 71 82 48 30 36 42 39 38 39 36 34 34 41 46 45 50 51 51 51 50 50 49 52 50 51 51 46 46 51 47 43 44 46 40 40 51 55 56 54 46 36 26 17
90 89 65 49 41 41 45 45 36 37 33 35 46 48 47 49 49 52 53 48 48 46 46 48 49 51 42 35 35 43 40 42 46 49 45 38 38 52 62 63 57 52 42 30
75 91 92 41 36 34 43 76 38 39 48 48 50 73 60 54 54 52 46 44 44 43 41 41 42 42 36 36 37 42 39 36 41 43 41 42 43 48 63 68 66 62 55 45
87 88 78 45 39 40 71 64 45 45 46 50 59 56 55 55 54 47 48 48 43 40 40 41 40 38 37 38 38 39 40 40 40 46 54 50 42 43 51 63 71 70 66 60
80 82 90 40 44 57 55 44 45 46 50 55 57 58 58 56 50 49 45 39 33 31 30 31 35 30 25 21 30 39 38 39 38 40 46 51 51 46 51 59 65 68 70 67
70 72 44 37 37 37 39 40 42 51 55 58 59 58 57 53 55 43 33 26 21 16 13 12 18 34 26 20 23 26 31 38 38 39 42 44 45 48 49 52 60 66 74 74
52 47 42 38 42 42 42 46 52 56 60 61 59 54 56 59 44 37 29 32 26 21 19 13 14 16 21 25 26 26 24 23 31 42 39 42 48 48 46 46 48 52 61 64
60 50 46 44 43 42 45 49 55 58 59 59 54 57 60 45 38 36 30 24 18 25 20 14 12 12 20 21 30 35 35 34 34 43 50 45 44 47 48 45 44 46 48 58
67 51 51 49 47 48 52 56 59 62 60 55 64 60 47 45 54 36 23 14 17 17 14 13 13 15 18 24 31 39 42 41 44 51 64 63 50 45 51 54 50 47 46 52
54 53 54 54 52 49 52 56 60 62 59 58 52 54 61 54 24 22 24 16 15 14 15 19 22 20 25 34 46 54 55 49 51 60 65 74 65 65 64 54 62 59 54 54
57 59 59 57 58 54 56 58 61 62 55 56 59 45 35 37 42 45 46 26 23 27 27 27 22 18 22 25 38 55 53 50 53 55 67 74 76 73 67 76 70 60 56 64
59 57 58 60 60 59 64 63 62 59 64 49 43 47 54 60 37 22 16 15 16 18 18 22 20 19 22 22 24 32 44 57 61 67 70 76 82 83 81 77 72 65 60 63
58 63 63 62 59 62 63 63 60 56 52 53 54 44 38 31 27 23 19 14 16 16 18 31 25 22 22 21 22 28 50 53 61 79 87 92 94 92 92 88 86 75 68 62
64 68 62 61 59 59 59 59 61 68 67 61 52 46 37 26 24 22 14 13 15 18 17 36 28 27 25 24 29 30 31 49 75 87 97 99 99 100 100 100 100 92 79 74
69 67 70 73 70 67 62 58 54 56 50 44 49 47 49 38 26 19 14 14 12 12 12 14 27 29 28 26 26 32 40 44 76 78 81 94 96 95 98 100 100 100 93 82
70 70 60 48 40 37 37 35 31 31 30 30 31 34 41 40 30 25 21 24 19 19 10 14 25 32 34 33 32 32 36 46 96 100 87 77 78 78 83 89 94 98 98 94
85 64 39 57 63 36 31 30 36 43 40 41 47 51 54 47 39 38 33 39 31 15 14 23 28 36 39 42 44 48 50 56 59 97 100 97 97 98 94 98 98 98 99 98
35 36 47 53 52 41 37 40 45 51 41 40 46 46 46 45 43 39 48 55 26 15 18 31 38 36 42 52 55 60 62 59 90 100 100 100 100 100 100 99 99 99 99 98
42 55 59 54 50 45 46 48 47 42 38 35 35 37 38 36 34 39 39 45 30 22 23 30 29 30 38 45 56 61 67 68 91 100 100 100 99 99 99 100 100 99 98 100
47 46 46 43 42 44 49 50 51 54 58 54 53 52 53 55 56 67 62 30 44 34 32 28 30 35 38 45 57 62 63 74 97 100 94 100 100 99 99 100 100 99 98 96
52 51 52 51 51 54 58 44 51 56 59 65 64 61 67 74 72 56 53 41 36 34 35 34 37 42 48 54 57 62 69 80 92 97 98 97 98 99 99 98 98 98 97 98
49 49 51 52 56 62 62 63 74 73 72 76 73 63 65 70 79 53 67 62 55 50 47 43 47 48 52 56 68 77 84 92 100 99 98 98 98 98 98 98 97 98 97 97
50 53 53 52 58 58 61 71 78 72 79 80 67 60 70 65 68 74 62 52 53 47 52 56 61 60 63 72 78 90 92 100 100 98 97 97 97 97 97 97 97 97 97 97
54 56 58 60 46 45 61 72 80 77 66 82 83 55 63 58 56 62 59 56 59 66 66 64 63 69 84 85 88 90 100 100 98 97 97 97 97 97 97 97 97 98 97 97

GFSNGP_850_rhum_177.txt.gz
RH
62 60 59 58 57 65 75 67 70 65 77 51 59 69 42 39 40 42 43 45 46 47 45 42 41 45 50 50 47 46 46 44 42 45 46 42 40 47 48 47 43 34 23 16
73 58 63 71 63 60 57 56 61 51 54 36 36 36 40 40 45 48 50 50 47 44 42 47 48 49 49 50 49 48 45 46 47 47 46 44 41 40 46 50 51 47 38 26
87 69 72 78 62 57 55 55 53 66 50 42 37 38 38 46 49 51 52 51 44 43 45 46 46 50 52 51 44 37 38 46 48 46 48 47 45 40 41 50 58 56 51 41
92 80 78 49 36 39 50 46 43 44 43 38 35 32 41 48 53 53 51 47 43 42 44 45 46 43 41 39 39 40 41 41 40 43 45 46 45 42 42 47 59 64 62 55
93 94 67 52 39 40 42 42 41 41 38 36 35 48 53 51 52 52 53 47 47 42 40 40 41 40 39 37 38 38 38 39 41 40 40 45 53 52 47 46 50 61 66 64
86 93 88 53 38 38 44 70 43 40 44 49 51 74 58 53 55 53 48 48 41 33 30 31 34 32 23 20 20 22 35 37 39 40 39 41 45 52 54 48 42 49 57 68
91 92 83 56 46 40 64 58 49 45 45 45 61 53 52 55 53 50 50 45 32 18 15 18 15 14 14 14 13 19 22 22 24 37 42 42 42 47 49 51 51 45 46 51
88 97 94 47 44 54 48 44 44 43 43 47 51 55 57 55 54 51 52 36 25 24 18 18 20 17 16 16 14 12 13 15 17 18 23 37 44 42 47 50 51 52 53 47
72 72 46 42 38 36 40 45 41 43 45 54 58 56 56 54 51 55 48 31 31 17 12 16 17 16 13 14 14 11 11 12 15 17 25 29 37 43 47 47 53 52 51 49
62 54 50 44 41 43 44 46 46 50 54 56 59 59 57 53 56 51 40 39 34 15 16 13 11 13 15 15 15 16 17 18 20 22 20 22 36 46 58 55 54 56 56 54
65 53 50 47 45 47 48 50 53 54 54 56 59 59 55 58 56 43 51 39 18 18 16 13 13 12 13 18 24 23 20 21 25 29 35 34 29 36 50 58 62 64 62 63
67 50 55 55 56 54 54 56 54 56 57 57 61 59 59 64 49 61 37 35 45 42 27 15 11 11 12 15 20 22 23 23 25 28 30 38 44 43 38 52 63 72 63 74
60 59 62 59 58 62 60 59 58 58 60 60 62 59 60 55 54 33 45 46 31 26 15 11 10 9 11 17 20 20 22 22 23 25 33 42 51 66 75 52 58 65 75 71
59 62 66 68 68 61 63 64 63 64 64 63 58 57 53 44 51 60 52 37 22 18 13 12 13 9 13 20 21 22 22 22 22 23 31 37 48 58 72 85 92 75 64 77
63 62 62 67 64 62 61 64 62 62 63 60 51 55 61 66 61 48 39 35 23 16 13 13 14 11 14 23 26 27 26 23 22 23 25 30 60 70 86 99 100 99 90 72
58 63 67 64 62 61 60 59 61 65 68 67 67 68 61 61 60 51 33 24 19 14 14 17 18 12 17 24 32 31 27 26 25 26 26 27 38 73 73 86 100 100 100 99
66 68 68 70 70 69 69 68 60 46 44 42 40 36 36 35 34 32 20 17 20 17 15 16 18 15 18 21 33 37 39 36 37 36 33 34 34 90 94 77 84 85 86 91
69 69 71 70 63 60 63 58 39 33 31 32 34 34 32 31 33 33 34 38 36 28 21 19 22 23 21 21 27 41 47 50 52 48 45 46 56 82 100 100 81 80 79 81
93 93 62 39 43 55 56 57 38 30 29 27 29 28 30 31 30 31 32 36 38 37 28 29 31 34 35 28 36 45 45 52 57 51 53 64 65 71 93 98 100 100 100 100
40 35 32 37 48 61 55 41 33 30 23 25 34 44 48 44 40 44 47 59 55 49 41 48 47 46 38 34 36 39 40 47 60 57 60 70 85 96 99 98 100 90 91 100
42 40 41 44 44 43 43 33 37 37 33 46 53 48 44 42 44 51 62 73 36 35 59 56 52 50 43 45 44 45 45 50 55 60 69 78 99 100 100 99 100 95 96 99
42 46 49 46 44 41 32 34 32 34 40 42 44 46 50 52 53 54 56 67 53 48 55 60 57 54 56 51 56 56 54 55 60 66 76 98 100 100 99 100 98 99 98 98
46 49 51 50 48 43 42 39 33 43 48 46 54 61 66 69 72 80 79 41 62 66 67 60 56 53 52 64 63 58 58 60 71 80 100 100 100 100 97 99 98 97 98 97
46 48 48 48 49 50 50 43 41 47 50 49 52 51 63 75 72 58 68 65 57 60 56 48 50 53 62 65 55 57 65 74 82 91 100 100 99 97 98 98 98 98 97 98
51 49 50 51 52 52 51 49 52 43 44 49 44 40 46 56 79 55 59 57 53 57 59 53 54 54 59 62 68 76 82 84 88 97 98 98 99 98 96 97 97 97 97 97
49 51 55 56 56 57 58 63 66 55 57 56 45 39 44 47 58 60 54 55 60 61 66 64 65 65 68 76 82 91 93 94 94 96 99 99 97 96 96 97 96 96 96 98
62 62 62 58 55 67 73 70 74 66 53 59 65 45 50 49 58 73 75 74 77 80 77 73 75 79 88 94 94 94 98 95 97 97 97 97 96 96 96 97 97 96 97 97

GFSNGP_850_rhum_180.txt.gz
RH
65 61 57 55 58 65 82 70 65 60 74 47 57 66 39 34 36 39 49 51 51 46 42 41 41 40 44 48 51 50 46 42 45 51 50 50 50 49 47 45 50 54 52 49
80 65 68 75 69 66 61 58 65 53 54 37 36 38 37 36 39 50 51 52 50 44 42 42 43 44 44 41 38 38 36 35 36 38 39 42 45 46 45 41 42 48 55 57
91 71 76 77 64 66 67 63 56 69 51 42 47 40 36 35 49 51 53 53 50 46 43 42 42 45 43 42 41 40 39 40 40 40 38 42 45 47 47 44 44 42 45 58
94 81 68 43 45 51 58 53 54 51 48 45 41 34 36 45 50 54 53 52 48 47 39 36 36 38 30 24 23 23 34 38 39 39 40 39 39 44 50 57 55 48 43 51
95 96 66 45 41 44 50 46 46 48 44 41 38 39 50 47 50 52 52 50 48 48 39 22 25 20 18 11 10 12 18 21 22 25 30 34 36 38 42 47 50 53 51 46
92 96 84 45 38 39 43 69 45 45 45 43 53 70 63 46 51 54 52 48 48 44 26 17 14 12 12 13 14 13 12 13 16 18 19 19 26 34 38 40 41 44 46 50
88 93 82 55 42 40 64 54 49 47 46 48 58 48 44 46 52 54 53 49 51 35 24 16 14 16 14 11 11 12 12 13 13 14 14 15 15 22 27 35 40 41 43 44
85 94 92 50 49 56 43 41 42 46 45 42 43 44 47 52 55 55 53 52 52 30 29 16 18 13 11 12 10 8 8 9 10 13 16 18 16 13 15 23 31 39 46 42
73 72 46 46 40 37 41 46 46 45 48 48 50 50 52 56 56 56 54 57 46 38 38 18 20 18 15 14 12 10 9 10 11 12 15 18 22 24 27 24 27 38 53 53
66 54 50 46 45 45 45 52 56 55 54 53 55 56 56 57 58 57 58 56 44 39 21 22 25 21 16 17 17 14 12 12 13 16 18 20 23 24 24 25 34 37 45 56
69 52 49 47 48 52 55 58 58 58 59 59 59 58 60 61 60 58 61 50 46 37 44 42 30 17 15 22 23 23 19 18 17 18 19 20 20 23 22 23 31 49 53 59
66 49 54 55 57 61 63 62 62 64 63 60 58 61 63 63 63 65 56 45 51 54 40 24 19 14 11 14 16 21 19 18 19 20 20 20 20 19 17 19 21 20 21 50
60 56 61 64 66 65 66 67 67 66 66 66 66 67 71 66 58 50 50 60 58 56 47 44 21 12 10 11 14 16 21 20 20 21 21 21 22 24 28 21 19 20 19 19
60 62 65 66 74 70 66 67 66 65 63 64 62 58 55 60 64 66 66 68 64 51 39 19 13 10 9 12 15 16 18 23 25 24 24 25 27 29 32 30 29 29 22 23
64 64 69 74 68 64 64 62 62 62 64 65 65 66 70 72 65 42 40 41 56 56 43 36 32 26 20 18 20 24 24 24 28 31 32 35 39 42 41 38 36 46 60 49
68 68 72 68 67 66 70 67 59 43 39 37 34 34 35 37 39 37 33 29 29 29 28 24 22 23 25 30 29 32 30 28 33 36 40 43 44 49 47 48 55 70 84 85
77 70 80 90 94 85 56 49 58 52 40 32 28 29 31 33 34 30 28 30 36 38 36 38 46 38 38 41 48 52 53 42 36 43 44 44 48 53 49 54 62 71 72 79
92 80 79 54 44 34 38 47 50 52 50 34 28 28 32 37 38 32 28 30 34 33 28 26 29 35 41 49 54 59 56 48 50 48 42 41 46 49 53 65 73 90 96 100
42 37 35 32 41 47 43 42 41 35 35 36 37 34 35 36 34 31 32 40 41 39 20 28 45 57 59 53 56 65 56 49 44 40 40 41 43 46 56 69 90 96 100 100
40 42 40 40 41 47 47 42 38 38 34 42 42 41 35 29 34 44 48 53 38 38 49 52 56 60 59 61 62 65 63 59 53 46 47 50 54 59 77 100 100 100 98 100
54 60 51 46 44 46 46 46 47 45 37 37 42 42 40 38 40 48 56 60 34 47 59 62 59 60 67 69 66 63 61 56 56 58 58 60 74 100 100 100 100 100 100 100
56 65 54 49 48 48 49 49 49 50 50 48 44 46 49 48 48 51 48 57 47 53 63 60 61 65 74 74 72 62 60 62 65 70 72 87 100 100 100 100 100 99 98 99
46 48 48 49 51 51 49 49 51 52 53 52 52 53 57 53 54 65 56 37 53 54 62 57 60 64 67 70 67 69 67 72 78 82 89 100 100 100 99 99 100 100 99 99
47 48 51 53 56 57 56 47 46 54 57 58 58 57 56 52 47 40 44 47 52 60 64 63 68 67 75 77 74 74 79 82 84 87 99 100 100 99 100 100 99 97 96 96
54 55 52 52 56 55 53 56 67 59 55 56 52 49 45 46 58 37 39 48 56 70 75 67 69 71 74 74 76 83 87 92 94 98 100 100 98 97 97 98 96 96 96 97
55 56 56 57 63 62 62 61 69 59 60 70 64 56 54 50 52 57 53 58 70 72 78 78 80 79 79 81 85 90 95 98 99 94 92 98 97 96 97 96 96 96 96 96
49 45 58 63 49 48 55 64 80 75 69 78 83 62 64 63 64 71 70 73 80 82 84 84 85 88 93 96 96 98 100 100 94 94 98 97 96 97 96 96 96 96 97 97

GFSNGP_850_rhum_183.txt.gz
RH
64 62 58 55 57 69 85 69 67 63 72 50 55 63 40 36 34 37 40 50 51 49 45 42 40 39 41 40 40 39 40 41 40 41 44 43 44 47 49 49 47 44 43 46
83 68 69 78 72 67 61 62 68 56 58 41 40 40 43 40 39 39 50 52 51 49 45 41 38 36 35 30 30 30 38 40 40 40 41 40 41 44 47 51 51 49 48 46
89 76 76 69 69 71 71 68 60 74 53 46 50 45 40 36 35 46 50 52 50 49 46 43 36 31 34 29 19 18 21 27 29 30 33 36 37 38 38 41 46 56 57 54
94 78 72 41 46 56 61 61 58 56 53 48 45 42 39 35 36 49 49 51 51 49 47 45 34 22 22 14 11 12 12 13 13 12 12 15 21 29 34 36 39 41 46 49
96 96 68 42 49 56 60 46 52 53 48 45 42 42 40 37 38 45 49 52 53 50 48 48 26 16 13 13 14 15 15 14 14 14 14 14 15 15 18 17 23 30 36 40
95 98 84 44 39 38 42 66 45 46 47 46 48 70 60 43 46 47 50 54 53 51 49 47 25 18 17 16 10 9 9 10 13 15 16 15 16 15 16 18 18 22 22 30
90 95 83 57 41 42 60 55 44 42 42 49 62 51 46 47 47 51 55 55 55 54 53 42 28 17 19 13 15 15 13 14 15 16 17 19 17 18 19 19 20 19 19 18
84 95 92 49 53 58 46 44 46 49 49 52 54 54 52 51 51 51 54 56 56 57 58 39 31 21 20 17 17 14 12 12 12 13 14 14 14 13 13 14 13 14 14 13
74 72 47 48 44 41 41 44 47 58 60 58 56 55 54 55 56 57 58 58 59 59 54 42 28 35 37 31 18 14 13 12 13 13 15 16 15 14 14 14 15 15 16 15
69 57 53 48 44 47 50 56 60 62 62 61 63 62 60 59 59 60 62 62 61 55 50 37 42 29 23 19 16 15 14 12 12 14 15 15 15 15 15 15 14 14 14 14
74 57 50 48 48 52 58 64 65 62 60 67 68 69 68 71 69 69 68 65 61 50 50 55 56 53 49 20 18 14 14 14 14 16 15 14 14 15 16 16 16 19 19 22
64 50 55 55 57 62 65 66 68 68 66 64 66 69 69 70 74 76 75 62 49 59 61 63 61 57 53 44 19 19 21 18 18 18 16 18 21 20 21 22 22 21 21 23
59 60 62 64 67 69 70 70 67 67 67 67 66 66 68 67 61 60 56 58 60 72 65 61 68 58 48 32 31 30 29 27 25 23 20 23 27 28 28 23 24 23 21 21
59 63 72 72 77 75 69 69 67 66 65 63 62 62 61 63 64 63 63 61 48 38 40 42 43 40 36 37 36 33 34 35 35 30 25 25 30 37 37 38 39 33 25 26
72 72 73 73 68 66 66 69 73 74 62 40 37 36 35 37 35 36 37 40 41 39 34 33 38 34 32 31 32 32 35 41 42 43 42 36 33 39 46 45 46 45 37 23
76 71 72 75 80 80 75 74 48 49 55 48 40 30 31 31 32 31 30 32 34 28 27 32 35 25 24 30 38 41 40 40 42 48 50 42 32 36 40 47 49 42 37 30
77 75 66 57 44 39 38 36 35 34 29 28 29 37 38 33 29 26 24 23 26 25 22 19 19 29 37 39 46 58 63 58 55 59 55 51 50 49 46 47 45 47 43 33
49 42 37 34 33 32 37 44 48 41 36 32 34 34 36 37 35 30 28 30 30 26 22 25 32 40 44 46 54 56 62 64 65 65 59 56 56 53 50 54 58 76 75 60
41 43 43 42 44 52 47 43 43 46 49 47 47 46 47 43 41 41 40 44 41 41 23 36 44 53 52 52 62 67 69 73 74 72 64 55 56 60 68 81 100 100 100 100
50 43 42 44 58 66 54 46 46 48 49 50 52 55 55 51 49 50 49 48 37 38 42 44 47 47 54 55 58 61 64 68 74 71 66 66 69 76 91 100 100 96 99 97
48 47 43 42 42 43 45 47 52 54 52 47 50 52 54 55 54 54 55 54 28 36 44 49 49 48 55 62 62 59 61 67 71 73 74 78 85 93 100 100 100 100 100 100
45 50 49 48 50 50 46 48 51 53 54 52 50 53 55 58 56 56 56 55 42 40 44 45 48 54 61 63 64 67 71 75 76 80 83 86 100 100 100 100 100 100 100 100
46 46 48 49 49 49 48 45 44 46 48 46 50 52 58 65 69 75 68 39 47 41 49 45 48 56 64 69 71 76 76 81 84 85 86 97 100 100 99 99 100 100 100 99
48 49 48 44 48 53 50 39 37 39 44 52 57 55 59 65 64 59 64 58 55 53 51 50 62 68 74 79 82 83 84 88 89 91 96 100 100 100 100 100 100 96 96 97
51 49 49 50 54 44 38 38 54 47 49 50 44 41 46 57 81 59 66 69 67 73 69 55 60 72 81 84 87 88 92 94 97 100 100 100 100 100 99 98 96 97 96 97
54 53 53 57 52 43 50 54 64 61 76 75 67 62 66 70 77 81 73 72 75 74 77 72 71 77 82 90 97 98 99 100 100 100 100 100 100 99 98 96 97 96 96 96
51 47 49 49 42 52 61 67 80 83 85 92 94 79 83 88 90 91 88 87 85 86 82 79 82 86 91 96 99 100 100 100 100 100 100 100 98 98 96 96 96 96 96 96

GFSNGP_850_rhum_189.txt.gz
RH
58 57 55 52 53 81 74 63 65 67 68 47 56 63 42 40 38 39 37 35 36 47 47 48 49 49 47 43 34 28 22 14 12 14 18 19 23 30 35 37 38 39 41 46
83 71 78 82 72 61 69 62 56 51 55 38 38 41 42 39 40 39 39 36 40 49 48 50 51 52 51 48 39 24 18 13 15 17 16 15 15 15 15 17 22 27 31 33
85 77 78 72 74 72 68 67 59 72 53 47 48 47 43 39 40 40 37 36 44 46 49 52 53 54 54 50 39 22 15 14 14 12 10 9 9 10 10 11 12 14 16 17
92 77 77 37 52 61 64 62 60 61 56 52 45 41 42 42 42 40 39 45 48 49 51 55 56 56 56 53 44 25 18 15 14 16 13 10 10 10 10 10 10 11 12 12
93 97 70 42 62 70 67 48 55 55 48 48 48 48 42 51 58 60 58 53 53 53 51 56 58 58 57 54 46 27 20 16 15 16 14 12 11 11 11 10 10 9 9 9
98 100 87 37 40 44 48 62 48 55 55 53 50 64 58 52 57 54 54 52 53 56 56 58 60 59 59 57 51 31 24 20 22 24 20 15 13 11 10 10 10 10 10 10
88 97 84 58 40 45 57 44 46 46 47 53 62 55 56 56 55 54 52 52 56 61 61 62 63 61 61 58 47 31 33 31 24 19 18 18 15 12 11 12 12 12 12 11
80 90 91 49 51 57 45 49 48 51 51 58 59 58 59 60 57 53 52 55 62 65 64 66 65 67 63 51 38 35 32 38 43 27 21 15 13 12 13 14 13 11 12 12
74 69 47 48 44 40 45 46 48 50 58 61 64 63 62 60 62 64 64 65 66 68 68 67 73 68 55 48 50 60 68 71 60 62 73 45 20 18 19 19 20 18 17 16
70 59 57 48 44 41 43 47 49 60 63 64 64 64 65 66 67 68 67 70 73 74 75 74 65 55 54 64 70 70 70 64 60 49 41 41 37 33 32 32 31 30 28 24
76 62 48 44 44 43 45 53 61 65 66 67 72 70 68 67 63 66 68 65 67 65 62 61 62 63 63 48 48 47 51 53 50 41 34 30 28 28 28 26 29 32 31 29
53 39 41 46 51 57 61 66 68 72 73 69 69 68 65 63 61 62 63 64 63 58 53 52 55 49 44 41 36 30 27 28 27 25 23 23 24 22 22 26 28 35 39 46
52 51 53 56 65 71 73 78 84 92 84 68 68 67 62 51 44 35 32 34 36 32 28 25 25 24 23 24 22 22 23 22 22 22 22 26 27 31 35 27 32 35 39 42
60 62 68 72 86 96 99 99 98 84 71 67 57 44 33 33 33 33 32 35 37 32 27 25 24 21 22 20 19 20 22 22 27 28 35 37 39 44 49 53 55 44 37 50
75 85 92 97 98 98 98 91 79 58 45 36 36 39 41 43 44 45 41 36 36 33 28 26 26 24 22 22 22 22 24 26 31 35 38 48 53 57 59 64 64 63 58 47
98 98 98 95 74 53 55 43 39 36 39 43 42 37 36 36 35 35 36 43 51 47 42 40 39 30 31 34 36 28 31 38 45 46 45 49 58 66 66 70 71 70 66 61
95 86 71 47 45 44 44 43 47 52 54 59 63 56 36 34 32 30 33 43 50 47 44 44 43 37 45 52 50 39 45 43 42 48 50 55 61 64 67 70 68 65 58 56
83 54 36 36 39 39 34 35 37 34 31 34 42 40 36 36 36 38 42 47 46 41 35 25 27 36 52 55 55 52 55 52 49 50 50 54 60 66 66 66 68 69 59 59
81 66 58 51 41 36 33 32 32 31 30 35 41 41 40 38 38 41 42 46 46 43 25 33 42 56 54 51 63 60 61 60 60 60 65 67 70 74 73 72 80 92 100 100
63 68 58 40 36 36 35 32 36 38 34 40 43 41 41 37 36 38 42 50 37 38 41 40 49 53 60 65 64 65 67 67 67 69 75 77 74 89 100 100 100 98 98 99
47 60 69 46 40 39 38 36 42 44 39 42 46 44 43 36 36 44 49 50 24 33 43 48 51 57 67 74 77 67 59 60 67 76 82 91 100 100 99 99 99 100 100 100
47 44 40 38 42 43 41 47 48 48 47 46 42 41 41 41 45 48 43 54 39 45 57 55 56 65 76 78 74 73 77 83 88 93 100 100 100 99 100 100 99 98 96 96
40 42 44 39 40 47 49 46 43 48 46 42 42 43 48 52 56 70 63 43 66 70 78 78 82 87 90 93 93 95 94 92 91 91 94 100 100 100 97 97 97 96 93 93
35 34 34 37 44 51 54 41 46 44 42 42 46 51 59 66 65 67 73 75 80 83 86 91 92 94 100 100 98 98 100 92 89 92 98 100 100 99 98 98 95 97 96 97
45 48 48 52 55 49 48 44 45 44 47 51 55 59 66 76 90 76 85 87 87 91 92 89 91 95 98 98 97 97 97 96 95 98 99 95 92 92 92 94 98 96 97 96
54 54 52 48 46 48 48 49 54 57 67 73 71 80 86 91 93 94 94 92 94 93 97 95 93 95 95 95 96 94 94 94 93 94 94 91 91 91 93 95 96 97 96 96
49 49 44 42 42 46 51 63 80 74 79 92 88 74 84 86 88 96 99 99 98 97 97 98 98 96 95 96 96 95 96 96 92 93 95 97 93 92 97 97 98 96 96 96